Home > Weather > Daytona Beach > Past weeks

Flag for USA Past Weather in Daytona Beach, Florida, USA — Yesterday and Last 2 Weeks

Now
83 °F

Passing clouds.


Feels Like: 91 °F
Forecast: 79 / 88 °F
Wind: 8 mph from East

Location: Daytona Beach Regional Airport

Current Time: Aug 29, 2016 at 12:04:56 AM

Latest Report: Aug 28, 2016 at 10:53 PM


Visibility: 10 mi

Pressure: 30.00 "Hg

Humidity: 79%

Dew Point: 76 °F

Location of Daytona BeachLocation

Past Weather in Daytona Beach — Graph

°F

Daytona Beach Temperature Yesterday

Maximum temperature yesterday: 92 °F (at 1:53 PM)
Minimum temperature yesterday: 81 °F (at 2:53 AM)
Average temperature yesterday: 85 °F

High & Low Weather Summary for the Past Weeks

 TemperatureHumidityPressure
High96 °F (Aug 21, 1:53 PM)100% (Aug 16, 4:53 AM)30.19 "Hg (Aug 16, 4:53 AM)
Low74 °F (Aug 20, 4:53 AM)43% (Aug 21, 1:53 PM)29.90 "Hg (Aug 20, 5:53 PM)
Average84 °F76%30.07 "Hg
* Reported Aug 13 9:53 PM — Aug 28 9:53 PM, Daytona Beach, Weather by CustomWeather, © 2016

Note: Actual official high and low records may vary slightly from our data, if they occured in-between our weather recording intervals... More about our weather records

Advertising

Daytona Beach Weather History for the Previous 24 Hours

Scroll right to see more
 ConditionsComfort  
Time TempWeatherWind HumidityBarometerVisibility
9:53 PM
Sun, Aug 28
83 °FPassing clouds.9 mph82%30.00 "Hg10 mi
8:53 PM83 °FPartly cloudy.7 mph79%29.97 "Hg10 mi
7:53 PM83 °FScattered clouds.15 mph82%29.96 "Hg10 mi
6:53 PM85 °FScattered clouds.15 mph77%29.94 "Hg10 mi
5:53 PM88 °FPartly sunny.16 mph70%29.96 "Hg10 mi
4:53 PM89 °FScattered clouds.20 mph65%29.95 "Hg10 mi
3:53 PM90 °FPassing clouds.18 mph61%29.97 "Hg10 mi
2:53 PM90 °FScattered clouds.17 mph61%29.98 "Hg10 mi
1:53 PM92 °FScattered clouds.15 mph60%30.01 "Hg10 mi
12:53 PM91 °FScattered clouds.15 mph64%30.01 "Hg10 mi
11:53 AM88 °FPartly sunny.16 mph67%30.03 "Hg10 mi
10:53 AM89 °FPartly sunny.16 mph65%30.03 "Hg10 mi
9:53 AM89 °FScattered clouds.15 mph68%30.02 "Hg10 mi
8:53 AM87 °FBroken clouds.10 mph75%30.01 "Hg10 mi
7:53 AM84 °FPartly cloudy.12 mph83%30.01 "Hg10 mi
6:53 AM81 °FPassing clouds.7 mph85%29.99 "Hg10 mi
5:53 AM82 °FPassing clouds.13 mph85%29.98 "Hg10 mi
4:53 AM81 °FPassing clouds.9 mph88%29.98 "Hg10 mi
3:53 AM81 °FPassing clouds.8 mph88%29.97 "Hg10 mi
2:53 AM81 °FPassing clouds.7 mph85%29.98 "Hg10 mi
1:53 AM82 °FPassing clouds.8 mph88%29.98 "Hg10 mi
12:53 AM82 °FPassing clouds.10 mph88%29.99 "Hg10 mi
Weather by CustomWeather, © 2016

See weather overviewHow to use our weather pages